Location: Tel Aviv
(32.0670°N, 34.7670°E)
Time: 01:26:23
(UTC+02:00)

Transit 4A - Pass Details

Date: 08 December 2023
Orbit: 869 x 974 km, 66.8° (Epoch: 23 February)

Event Time Altitude Azimuth Distance (km) Brightness Sun altitude
Rises 18:40:20 0° 211° (SSW) 3,649 11.6 -25.6°
Reaches altitude 10° 18:42:54 10° 213° (SSW) 2,708 10.9 -26.1°
Maximum altitude 18:49:13 69° 296° (WNW) 1,033 8.2 -27.5°
Enters shadow 18:51:22 43° 5° (N) 1,339 8.5 -27.9°
